Ahoskie, NC

2:05 AM EDT on April 23, 2017 (GMT -0400)
Tri County

Weather History for KASJ - October, 2013

Change the Weather History Date:

Wednesday, October 23, 2013

  Actual Average (KEMV) Record (KEMV)
Temperature  
Mean Temperature 56 °F -  
Max Temperature 63 °F 67 °F 86 °F (2007)
Min Temperature 48 °F 41 °F 26 °F (1987)
Degree Days  
Heating Degree Days 10    
Growing Degree Days 6 (Base 50)    
Moisture  
Dew Point 49 °F    
Average Humidity 81    
Maximum Humidity 96    
Minimum Humidity 50    
Precipitation  
Precipitation 0.00 in - - ()
Sea Level Pressure  
Sea Level Pressure 29.76 in    
Wind  
Wind Speed 1 mph (NW)    
Max Wind Speed 9 mph    
Max Gust Speed -    
Visibility 7 miles    
Events      
Averages and records for this station are not official NWS values.
T = Trace of Precipitation, MM = Missing Value Source: NWS Daily Summary

Daily Weather History Graph

Daily Weather History Graph

Search for Another Location

Airport or City:

Trip Planner

Search our weather history database for the weather conditions in past years. The results will help you decide how hot, cold, wet, or windy it might be!

Date:

Astronomy

Oct. 23, 2013 Rise Set
Actual Time 7:23 AM EDT 6:22 PM EDT
Civil Twilight 6:56 AM EDT 6:48 PM EDT
Nautical Twilight 6:26 AM EDT 7:18 PM EDT
Astronomical Twilight 5:57 AM EDT 7:48 PM EDT
Moon 9:55 PM EDT 11:34 AM EDT
Length of Visible Light 11h 51m
Length of Day
10h 58m
Waning Gibbous, 79% of the Moon is Illuminated
Oct 23
Waning Gibbous
Oct 26
Last Quarter
Nov 3
New
Nov 10
First Quarter
Nov 17
Full

Hourly Weather History & Observations

Time (EDT) Temp. Dew Point Humidity Pressure Visibility Wind Dir Wind Speed Gust Speed Precip Events Conditions
12:15 AM 55.6 °F 54.1 °F 95% 29.83 in 2.5 mi Calm Calm - N/A   Clear
12:35 AM 56.1 °F 54.7 °F 95% 29.82 in 4.0 mi Calm Calm - N/A   Clear
12:55 AM 56.5 °F 55.0 °F 95% 29.80 in 3.0 mi Calm Calm - N/A   Clear
1:15 AM 55.9 °F 54.5 °F 95% 29.80 in 4.0 mi Calm Calm - N/A   Clear
1:35 AM 55.9 °F 54.5 °F 95% 29.79 in 3.0 mi Calm Calm - N/A   Clear
1:55 AM 55.9 °F 54.5 °F 95% 29.78 in 4.0 mi Calm Calm - N/A   Clear
2:15 AM 55.8 °F 54.5 °F 96% 29.78 in 3.0 mi Calm Calm - N/A   Clear
2:35 AM 54.7 °F 53.4 °F 96% 29.78 in 1.0 mi South 3.5 mph - N/A   Mostly Cloudy
2:55 AM 54.9 °F 53.6 °F 96% 29.78 in 1.2 mi Calm Calm - N/A   Scattered Clouds
3:15 AM 55.0 °F 53.8 °F 96% 29.77 in 1.0 mi Calm Calm - N/A   Mostly Cloudy
3:35 AM 55.4 °F 54.3 °F 96% 29.76 in 2.0 mi South 3.5 mph - N/A   Unknown
3:55 AM 55.9 °F 54.7 °F 96% 29.75 in 2.0 mi South 3.5 mph - N/A   Unknown
4:15 AM 55.8 °F 54.7 °F 96% 29.74 in 2.0 mi Calm Calm - N/A   Mostly Cloudy
4:35 AM 56.5 °F 55.4 °F 96% 29.74 in 3.0 mi Calm Calm - N/A   Unknown
4:55 AM 56.7 °F 55.4 °F 96% 29.74 in 4.0 mi Calm Calm - N/A   Scattered Clouds
5:15 AM 56.5 °F 55.4 °F 96% 29.73 in 4.0 mi Calm Calm - N/A   Mostly Cloudy
5:35 AM 56.3 °F 54.9 °F 95% 29.73 in 4.0 mi Calm Calm - N/A   Mostly Cloudy
5:55 AM 57.0 °F 55.8 °F 96% 29.73 in 4.0 mi Calm Calm - N/A   Overcast
6:15 AM 57.7 °F 56.3 °F 95% 29.72 in 7.0 mi Calm Calm - N/A   Overcast
6:35 AM 57.7 °F 55.8 °F 93% 29.72 in 7.0 mi Calm Calm - N/A   Overcast
6:55 AM 56.8 °F 55.0 °F 94% 29.70 in 5.0 mi South 3.5 mph - N/A   Mostly Cloudy
7:15 AM 56.5 °F 55.0 °F 95% 29.70 in 4.0 mi Calm Calm - N/A   Mostly Cloudy
7:35 AM 56.8 °F 55.4 °F 95% 29.70 in 5.0 mi South 3.5 mph - N/A   Overcast
7:55 AM 57.2 °F 55.6 °F 94% 29.69 in 3.0 mi South 3.5 mph - N/A   Overcast
8:15 AM 57.2 °F 55.6 °F 94% 29.69 in 4.0 mi Calm Calm - N/A   Overcast
8:35 AM 57.9 °F 56.1 °F 94% 29.69 in 4.0 mi South 5.8 mph - N/A   Overcast
8:55 AM 58.3 °F 56.3 °F 93% 29.69 in 4.0 mi Calm Calm - N/A   Overcast
9:15 AM 59.0 °F 56.8 °F 93% 29.69 in 5.0 mi Calm Calm - N/A   Overcast
9:35 AM 59.0 °F 56.8 °F 93% 29.69 in 4.0 mi Calm Calm - N/A   Overcast
9:55 AM 59.4 °F 56.8 °F 91% 29.68 in 5.0 mi Calm Calm - N/A   Overcast
10:15 AM 54.5 °F 51.8 °F 91% 29.69 in 7.0 mi North 4.6 mph - N/A   Overcast
10:35 AM 52.3 °F 50.2 °F 92% 29.70 in 10.0 mi NNW 9.2 mph - N/A   Overcast
10:55 AM 51.4 °F 49.1 °F 92% 29.71 in 10.0 mi NNW 6.9 mph - N/A   Overcast
11:15 AM 51.3 °F 48.4 °F 90% 29.71 in 10.0 mi North 6.9 mph - N/A   Overcast
11:35 AM 52.0 °F 48.7 °F 89% 29.70 in 10.0 mi North 6.9 mph - N/A   Overcast
11:55 AM 52.9 °F 48.9 °F 86% 29.70 in 10.0 mi Calm Calm - N/A   Overcast
12:15 PM 54.9 °F 49.5 °F 82% 29.70 in 10.0 mi NNW 4.6 mph - N/A   Overcast
12:35 PM 55.2 °F 49.1 °F 80% 29.71 in 10.0 mi NW 4.6 mph - N/A   Overcast
12:55 PM 54.9 °F 48.7 °F 80% 29.71 in 10.0 mi NNW 5.8 mph - N/A   Overcast
1:15 PM 56.3 °F 49.5 °F 78% 29.70 in 10.0 mi NW 3.5 mph - N/A   Mostly Cloudy
1:35 PM 57.4 °F 49.5 °F 75% 29.69 in 10.0 mi NNW 3.5 mph - N/A   Mostly Cloudy
1:55 PM 58.5 °F 49.6 °F 72% 29.68 in 10.0 mi Calm Calm - N/A   Scattered Clouds
2:15 PM 59.9 °F 50.0 °F 70% 29.68 in 10.0 mi NNW 3.5 mph - N/A   Clear
2:35 PM 60.6 °F 49.5 °F 67% 29.69 in 10.0 mi WNW 4.6 mph - N/A   Clear
2:55 PM 61.5 °F 47.8 °F 61% 29.69 in 10.0 mi NNW 8.1 mph - N/A   Scattered Clouds
3:15 PM 61.9 °F 47.8 °F 60% 29.69 in 10.0 mi NW 4.6 mph - N/A   Clear
3:35 PM 63.3 °F 47.8 °F 57% 29.70 in 10.0 mi West 5.8 mph - N/A   Clear
3:55 PM 62.8 °F 44.6 °F 51% 29.71 in 10.0 mi NNW 5.8 mph - N/A   Clear
4:15 PM 62.6 °F 43.7 °F 50% 29.71 in 10.0 mi NW 6.9 mph - N/A   Clear
4:35 PM 60.8 °F 43.9 °F 54% 29.72 in 10.0 mi WNW 3.5 mph - N/A   Scattered Clouds
4:55 PM 61.5 °F 43.9 °F 52% 29.73 in 10.0 mi WNW 3.5 mph - N/A   Scattered Clouds
5:15 PM 60.3 °F 44.8 °F 57% 29.74 in 10.0 mi Calm Calm - N/A   Scattered Clouds
5:35 PM 58.8 °F 43.5 °F 57% 29.75 in 10.0 mi Calm Calm - N/A   Clear
5:55 PM 57.4 °F 44.1 °F 61% 29.76 in 10.0 mi Calm Calm - N/A   Clear
6:15 PM 55.4 °F 45.0 °F 68% 29.77 in 10.0 mi Calm Calm - N/A   Clear
6:35 PM 54.3 °F 44.6 °F 70% 29.78 in 10.0 mi Calm Calm - N/A   Clear
6:55 PM 52.0 °F 45.1 °F 77% 29.79 in 10.0 mi Calm Calm - N/A   Clear
7:15 PM 50.0 °F 45.1 °F 83% 29.81 in 10.0 mi Calm Calm - N/A   Clear
7:35 PM 49.1 °F 45.5 °F 87% 29.82 in 10.0 mi Calm Calm - N/A   Scattered Clouds
7:55 PM 49.6 °F 45.5 °F 86% 29.83 in 10.0 mi Calm Calm - N/A   Mostly Cloudy
8:15 PM 48.6 °F 45.5 °F 89% 29.84 in 10.0 mi Calm Calm - N/A   Mostly Cloudy
8:35 PM 49.3 °F 45.5 °F 87% 29.86 in 10.0 mi Calm Calm - N/A   Scattered Clouds
8:55 PM 51.6 °F 44.6 °F 77% 29.87 in 10.0 mi Calm Calm - N/A   Scattered Clouds
9:15 PM 53.1 °F 43.0 °F 69% 29.87 in 10.0 mi Calm Calm - N/A   Mostly Cloudy
9:35 PM 52.2 °F 42.1 °F 69% 29.88 in 10.0 mi Calm Calm - N/A   Scattered Clouds
9:55 PM 52.3 °F 40.6 °F 64% 29.90 in 10.0 mi Calm Calm - N/A   Clear
10:15 PM 51.3 °F 40.1 °F 66% 29.91 in 10.0 mi Calm Calm - N/A   Scattered Clouds
10:35 PM 50.9 °F 38.7 °F 63% 29.93 in 10.0 mi Calm Calm - N/A   Scattered Clouds
10:55 PM 50.0 °F 37.9 °F 63% 29.93 in 10.0 mi Calm Calm - N/A   Clear
11:15 PM 49.5 °F 37.6 °F 64% 29.94 in 10.0 mi NW 3.5 mph - N/A   Clear
11:35 PM 48.9 °F 37.0 °F 64% 29.96 in 10.0 mi WNW 3.5 mph - N/A   Clear
11:55 PM 48.2 °F 36.7 °F 64% 29.96 in 10.0 mi Calm Calm - N/A   Clear